Miscellaneous Local Product
Issued by NWS North Platte, NE

Home | Current Version | Previous Version | Text Only | Print | Product List | Glossary On
Versions: 1 2 3 4 5 6 7 8 9 10 11 12 13 14 15 16 17 18 19 20 21 22 23 24 25 26 27 28 29 30 31 32 33 34 35 36 37 38 39 40 41 42 43 44 45 46 47 48 49 50
000
AXUS43 KLBF 170010
MISLBF


WESTERN AND NORTH CENTRAL NEBRASKA HOURLY WEATHER ROUNDUP
NATIONAL WEATHER SERVICE NORTH PLATTE NE
600 PM CST THU NOV 16 2017

NOTE: "FAIR" INDICATES FEW OR NO CLOUDS BELOW 12,000 FEET WITH NO
SIGNIFICANT WEATHER AND/OR OBSTRUCTIONS TO VISIBILITY.

NOTE: STATIONS NOT REPORTING VARIABLES SUCH AS SKY/WEATHER OR
PRESSURE ARE PROVIDED BY RAWS AND APRS NETWORKS AND ARE NOT UNDER
NATIONAL WEATHER SERVICE QUALITY CONTROL.

...OBSERVATIONS IN AND NEAR THE EASTERN PANHANDLE OF NEBRASKA...

CITY           SKY/WX    TMP DP  RH WIND       PRES   REMARKS
PINE RIDGE     CLOUDY    57  30  35 S13       29.58S
GORDON         FAIR      52  30  42 SW9       29.60F
CHADRON        CLOUDY    62  26  25 SW12      29.57R
ALLIANCE       CLOUDY    50  32  50 S15       29.64S
SIDNEY         CLOUDY    50  27  40 S13       29.71S
$$

...OBSERVATIONS IN NORTHERN NEBRASKA AND FAR SOUTHERN SOUTH DAKOTA...

CITY           SKY/WX    TMP DP  RH WIND       PRES   REMARKS
WINNER         FAIR      59  32  36 S26G32    29.59S
VALENTINE      CLOUDY    57  31  37 S26G41    29.61F
THEDFORD       CLOUDY    54  34  45 S13       29.71S
AINSWORTH      CLOUDY    52  33  48 S21G26    29.66F
O`NEILL        CLEAR     49  34  56 S18       29.74F
ORD            CLOUDY    50  34  54 SE12      29.77F
BROKEN BOW     CLOUDY    54  34  46 S15       29.76S
VALENTINE NWR    N/A     53  29  40 S14G23      N/A
HALSEY           N/A     54  32  43 S9G18       N/A
BUTTE            N/A     51  33  51 S20G26      N/A
CHAMBERS         N/A     46  31  56 S3          N/A
EWING            N/A     49  34  57 S9G18       N/A
$$

...OBSERVATIONS IN SOUTHWEST NEBRASKA AND FAR NORTHEAST COLORADO...

CITY           SKY/WX    TMP DP  RH WIND       PRES   REMARKS
HOLYOKE        FAIR      50  30  46 SE8       29.71S
OGALLALA       CLOUDY    57  31  37 E9        29.70F
NORTH PLATTE   CLEAR     52  34  50 SE9       29.74F
MCCOOK         CLOUDY    57  35  43 S13       29.76S
LEXINGTON      CLOUDY    53  35  49 S13       29.78F
STAPLETON        N/A     50  34  54 CALM        N/A
GOTHENBURG       N/A     56  33  42 SE8         N/A
CALLAWAY         N/A     52  36  54 S15         N/A
$$

...OBSERVATIONS IN CENTRAL LINCOLN COUNTY AREA...

CITY           SKY/WX    TMP DP  RH WIND       PRES   REMARKS
N.P. AIRPORT   CLEAR     52  34  50 SE9       29.74F
N.P. DOWNTOWN    N/A     54  36  51 CALM        N/A
N.P. SOUTHEAST   N/A     53  35  51 E3          N/A
N.P. HILLCREST   N/A     55  35  47 S7          N/A
$$

...SOME OBSERVATIONS FROM AROUND THE REGION...

CITY           SKY/WX    TMP DP  RH WIND       PRES   REMARKS
DENVER         CLOUDY    63  19  18 CALM      29.77S
LIMON          CLOUDY    54  20  26 S5        29.79F
ASPEN          CLOUDY    52  26  36 S16G30    30.02R
LARAMIE        CLOUDY    48  23  37 SW18G24   29.81S
CASPER         CLOUDY    53  31  42 SW23      29.67S
CHEYENNE       CLOUDY    56  23  27 SW10      29.78S
SCOTTSBLUFF    CLOUDY    60  26  27 S10       29.64R
GRAND ISLAND   CLOUDY    51  34  52 S14       29.85F
OMAHA          PTCLDY    44  28  53 SE15      29.97F
SIOUX FALLS    CLOUDY    39  27  62 SE16G24   29.84F WCI  30
PIERRE         CLOUDY    52  33  48 SE15      29.52F
RAPID CITY     CLOUDY    68  26  20 SW18G30   29.50F
BISMARCK       CLOUDY    40  28  62 SE8       29.56S WCI  34
KANSAS CITY    PTCLDY    45  30  55 SE13      30.06S
HILL CITY      CLOUDY    54  37  52 E8        29.82S
WICHITA        CLOUDY    59  45  59 SE8       29.94F
DODGE CITY     CLEAR     59  44  57 S20       29.84F
OKLAHOMA CITY  CLOUDY    57  55  93 SE13      29.98S FOG
DALLAS         PTCLDY    69  62  78 SE6       29.99S
AMARILLO       CLEAR     64  36  35 S7        29.90F
$$




USA.gov is the U.S. government's official web portal to all federal, state and local government web resources and services.